Flag for Paraguay Weather past 2 weeks in Ciudad del Este, Paraguay

77 °F

Low clouds.

Feels Like: 79 °F
Forecast: 71 / 83 °F
Wind: 8 mph from North

Location: Foz Do Iguacu Aeroporto

Current Time: Dec 1, 2015 at 11:48:44 AM

Latest Report: Dec 1, 2015 at 11:00 AM

Visibility: N/A

Pressure: 30.01 "Hg

Humidity: 79%

Dew point: 70 °F

Location of Ciudad del EsteLocation

Historic Weather in Ciudad del Este — Graph


Ciudad del Este temperature yesterday

Maximum temperature yesterday: 81 °F (at 1:00 PM)
Minimum temperature yesterday: 64 °F (at 5:00 AM)
Average temperature yesterday: 73 °F

Past Weeks' High & Low Weather Summary

High84 °F (Nov 19, 2:00 PM)100% (Nov 17, 4:00 AM)30.01 "Hg (Nov 17, 4:00 AM)
Low34 °F (Nov 18, 8:00 AM)48% (Nov 21, 1:00 PM)29.47 "Hg (Nov 19, 4:00 PM)
Average73 °F86%29.80 "Hg
* Reported Nov 16 10:00 AM — Dec 1 10:00 AM, Ciudad del Este, Weather by CustomWeather, © 2015

Note: Actual official high and low records may vary slightly from our data, if they occured in-between our weather recording intervals... More about our weather records


Ciudad del Este weather history for previous 24 hours

Time TempWeatherWind HumidityBarometerVisibility
10:00 AM
Tue, Dec 1
75 °FMore clouds than sun.7 mph83%30.01 "HgN/A
9:00 AM73 °FLow clouds.6 mph89%30.01 "HgN/A
8:00 AM72 °FLow clouds.3 mph88%29.98 "HgN/A
7:00 AM70 °FPartly sunny.6 mph94%29.95 "HgN/A
6:00 AM70 °FBroken clouds.6 mph94%29.95 "HgN/A
5:00 AM70 °FPassing clouds.8 mph94%29.92 "HgN/A
4:00 AM70 °FPassing clouds.6 mph94%29.92 "HgN/A
3:00 AM72 °FPassing clouds.9 mph88%29.92 "HgN/A
2:00 AM72 °FPassing clouds.6 mph94%29.95 "HgN/A
1:00 AM72 °FPassing clouds.8 mph94%29.95 "HgN/A
12:00 AM73 °FPartly cloudy.7 mph89%29.98 "HgN/A
11:00 PM
Mon, Nov 30
73 °FPassing clouds.5 mph89%29.98 "HgN/A
10:00 PM73 °FPassing clouds.2 mph89%29.98 "HgN/A
9:00 PM73 °FPassing clouds.2 mph89%29.95 "HgN/A
8:00 PM75 °FPartly cloudy.5 mph89%29.95 "HgN/A
7:00 PM77 °FBroken clouds.3 mph83%29.92 "HgN/A
6:00 PM79 °FBroken clouds.5 mph74%29.92 "HgN/A
5:00 PM79 °FBroken clouds.7 mph79%29.92 "HgN/A
4:00 PM81 °FBroken clouds.9 mph74%29.92 "HgN/A
3:00 PM81 °FBroken clouds.2 mph74%29.95 "HgN/A
2:00 PM81 °FBroken clouds.5 mph74%29.95 "HgN/A
1:00 PM81 °FBroken clouds.3 mph70%29.95 "HgN/A
12:00 PM79 °FPartly sunny.6 mph74%29.98 "HgN/A
11:00 AM79 °FSunny.8 mph65%30.01 "Hg10 mi
Weather by CustomWeather, © 2015

See weather overviewHow to use our weather pages